CZ-6A DEB

Satellite information

Favourite Embed

Satellite Type and Status

DEBRISIN ORBIT

Key statistics

Satellite CZ-6A DEB at a glance.

Uptime

1024

Days in orbit

Revolutions

≈ 14.2

Per day

Orbit

SSO

Sun Synchronous Orbit

Inclination

98.8

Latest

Satellite identification and parameters

Extended collection of information and parameters for CZ-6A DEB.

Object identification

Identified? True

Debris? True

Object name: CZ-6A DEB

International designator: 2022-151Q

Object number (NORAD): 54273

Object ID (CCSDS): 54273

Country: PEOPLES REPUBLIC OF CHINA (PRC)

Current information (Y/N): Y

RCS size: SMALL

Orbital parameters

Period: 101.28 minutes

Inclination: 98.803 deg

SMA: 7197.407 km

Apoapsis: 838.202 km

Periapsis: 800.342 km

RAAN: 252.8887 deg

Eccentricy: 0.00263016

Argument of periapsis: 30.3145 deg

Mean anomaly: 329.9547 deg

Mean motion: 14.21800552 rev/day

Mean motion (dot): 0.00004244 rev/day2

B* drag term: 0.0019407265 1/REarth

Two-line elements (TLE)

Creation date: Aug. 31, 2025, 2:26 a.m.

Reference frame: TEME

Reference center: EARTH

Epoch: Aug. 30, 2025, 1:17 p.m. UTC

TLE line 0: 0 CZ-6A DEB

TLE line 1: 1 54273U 22151Q 25242.55355718 .00004244 00000-0 19407-2 0 9993

TLE line 2: 2 54273 98.8030 252.8887 0026302 30.3145 329.9547 14.21800552144208

Live tracking on map

Real-time ground track for satellite CZ-6A DEB.

In-orbit conjunctions

A list of the most updated potential collisions computed for object CZ-6A DEB.

Target Orbit TCA Probability of collision Miss distance Type
FENGYUN 1C DEB SSO 2025-07-01 08:37:43 0.0001271285 57.0 (m) DEBRIS
COSMOS 1275 DEB LEO 2025-03-06 04:02:02 0.0004230075 60.0 (m) DEBRIS
METEOR 1-17 DEB LEO 2024-11-14 17:13:23 0.0001004254 732.0 (m) DEBRIS
FENGYUN 1C DEB SSO 2024-09-25 15:30:00 0.0005006523 249.0 (m) DEBRIS
FENGYUN 1C DEB SSO 2024-09-19 20:25:25 0.0001255694 353.0 (m) DEBRIS

Associated space launch

Chinese satellite reported for atmospheric/ocean/environmental/spatial parameter research purposes, details TBD.

CZ-6A DEB was lifted into orbit during the mission ‘Long March 6A | Yunhai 3’, on board a Long March 6A space rocket.

The launch took place on Nov. 11, 2022, 10:52 p.m. from Launch Complex 9A.

For more information about the launch, click the button.

Launch to space Long March 6A | Yunhai 3
Long March 6A | Yunhai 3

Agency: N/A

Status: Launch Successful

Launch date: Nov. 11, 2022, 10:52 p.m. UTC

Rocket: Long March 6A

Launch pad: Launch Complex 9A

Location: Taiyuan Satellite Launch Center, People's Republic of China

...

Latest news about this satellite

There are no fresh news available about this satellite. Check back as we update our databases every day.


Newsletter sign-up

Weekly statistics, charts and insights to help you stay on top of the space industry.